Location: Goettingen
(51.5300°N, 9.9433°E)
Time: 10:55:44
(UTC+02:00)

ISS - Pass Details

Date: 24 May 2017
Orbit: 401 x 408 km, 51.6° (Epoch: 27 June)

Event Time Altitude Azimuth Distance (km) Brightness Sun altitude
Rises 03:27:36 0° 283° (WNW) 2,337 -0.2 -12.2°
Reaches altitude 10° 03:29:43 10° 278° (W) 1,473 -1.2 -12.1°
Maximum altitude 03:32:56 52° 202° (SSW) 513 -3.7 -11.8°
Drops below altitude 10° 03:36:08 10° 124° (SE) 1,462 -1.0 -11.5°
Sets 03:38:14 0° 120° (ESE) 2,318 0.1 -11.4°
